Home   Weather   Izmir   Past weeks
Flag for Turkey

Past Weather in Izmir, Turkey — Yesterday and Last 2 Weeks

Now
72 °F

Clear.


Feels Like: 75 °F
Forecast: 83 / 62 °F
Wind: 2 mph from North

Location: Izmir / Cigli

Current Time: Oct 15, 2019 at 12:12:58 pm

Latest Report: Oct 15, 2019 at 10:50 am


Visibility: 4 mi

Pressure: 30.04 "Hg

Humidity: 69%

Dew Point: 61 °F

Location of IzmirLocation

Past Weather in Izmir — Graph

°F

Izmir Temperature Yesterday

Maximum temperature yesterday: 79 °F (at 1:50 pm)
Minimum temperature yesterday: 55 °F (at 4:50 am)
Average temperature yesterday: 66 °F

High & Low Weather Summary for the Past Weeks

 TemperatureHumidityPressure
High88 °F (Oct 1, 3:50 pm)100% (Oct 15, 3:50 am)30.18 "Hg (Oct 15, 3:50 am)
Low52 °F (Oct 7, 3:50 am)32% (Sep 30, 4:50 pm)29.71 "Hg (Oct 5, 12:00 am)
Average69 °F71%29.96 "Hg
* Reported Sep 30 9:50 am — Oct 15 9:50 am, Izmir. Weather by CustomWeather, © 2019

Note: Actual official high and low records may vary slightly from our data, if they occured in-between our weather recording intervals... More about our weather records

Advertising

Izmir Weather History for the Previous 24 Hours

Scroll right to see more
 ConditionsComfort  
Time TempWeatherWind HumidityBarometerVisibility
9:50 am
Tue, Oct 15
68 °FFog.1 mph83%30.07 "Hg3 mi
8:50 am61 °FFog.No wind94%30.04 "Hg2 mi
7:50 am57 °FFog.No wind94%30.04 "Hg2 mi
6:50 am57 °FFog.No wind94%30.04 "Hg2 mi
5:50 am57 °FClear.No wind94%30.04 "Hg4 mi
4:50 am55 °FFog.No wind94%30.04 "Hg3 mi
4:40 am55 °FFog.No wind94%30.04 "Hg2 mi
3:50 am55 °FClear.2 mph100%30.04 "Hg4 mi
1:50 am61 °FClear.No wind94%30.07 "Hg5 mi
12:50 am61 °FClear.No wind94%30.07 "Hg10 mi
11:50 pm
Mon, Oct 14
61 °FClear.No wind94%30.07 "Hg10 mi
10:50 pm63 °FClear.No wind88%30.07 "Hg10 mi
9:50 pm64 °FClear.2 mph83%30.07 "Hg10 mi
8:50 pm66 °FClear.No wind88%30.07 "Hg10 mi
7:50 pm68 °FClear.2 mph88%30.07 "Hg10 mi
6:50 pm70 °FClear.6 mph83%30.07 "Hg10 mi
5:50 pm73 °FSunny.7 mph78%30.04 "Hg10 mi
4:50 pm75 °FSunny.9 mph69%30.07 "Hg10 mi
3:50 pm79 °FSunny.10 mph58%30.07 "Hg10 mi
2:50 pm79 °FSunny.12 mph58%30.07 "Hg10 mi
1:50 pm79 °FPassing clouds.7 mph51%30.09 "HgN/A
12:50 pm77 °FSunny.3 mph57%30.09 "Hg10 mi
Weather by CustomWeather, © 2019

See weather overview